"Pseudo-MPEC" for GG125G

Created 2020 Dec 15 20:07:22 UT using Find_Orb

Click here for an explanation of pseudo-MPECs

 
 Astrometry: 
     GG125G  4C2020 11 25gHC[2QmrAAstrometry?redacted;VMRf]Q(+oOFwhgfeF_\LH%-W88
     GG125G  4C2020 11 255W!-xtcL)\c[eoclick*:hereo']\GH\,#?2Kx@`/uHbo1huoJ9*W88
     GG125G  4C2020 11 255bh*WoAmpiPWlIirGc2W8Z?-Fa];1Py!for8g_Iexplanation6,W88

Station data:
(W88) Slooh.com Chile Observatory, La Dehesa  (S33.269128 W70.534300)  Chile.
   0.35-m f/11 Schmidt-Cassegrain + CCD.

Orbital elements:  GG125G
   Perihelion 2021 Aug 3.711834 +/- 289 TT = 17:05:02 (JD 2459430.211834)
Epoch 2020 Nov 25.0 TT = JDT 2459178.5   Ju: 0.5263           AutoNEOCP
M 338.53828773 +/- 100              (J2000 ecliptic)
n   0.08526302 +/- 0.368            Peri.  200.55738 +/- 120
a   5.11244787 +/- 14.7             Node   332.92859 +/- 27
e   0.0917186 +/- 0.21              Incl.   48.19847 +/- 53
P  11.56                   H 11.5   G  0.15   U 12.1  SR
q 4.64354095 +/- 1.43    Q 5.58135480 +/- 37.2
From 3 observations 2020 Nov. 25 (39.3 min); mean residual 0".30
Residuals in arcseconds: 
201125 W88  .18+  .23-    201125 W88  .37-  .46+    201125 W88  .18+  .24-    

Ephemerides (geocentric):
Date (UTC) HH   RA              Dec         delta   r     elong  mag " sig PA
---- -- -- --  -------------   -----------  ------ ------ -----  --- ---- ---
2020 12 15 20  11 00 20.682   +09 01 55.06  4.3841 4.6765 101.2 18.7  56d   7
2020 12 15 21  11 00 20.635   +09 01 43.70  4.3834 4.6765 101.3 18.7  56d   7
2020 12 15 22  11 00 20.587   +09 01 32.35  4.3828 4.6765 101.3 18.7  56d   7
2020 12 15 23  11 00 20.538   +09 01 21.00  4.3821 4.6765 101.4 18.7  56d   7
2020 12 16 00  11 00 20.486   +09 01 09.65  4.3814 4.6765 101.4 18.7  56d   7
2020 12 16 01  11 00 20.434   +09 00 58.31  4.3807 4.6765 101.4 18.7  56d   7
2020 12 16 02  11 00 20.379   +09 00 46.98  4.3800 4.6765 101.5 18.7  56d   7
2020 12 16 03  11 00 20.323   +09 00 35.65  4.3794 4.6765 101.5 18.7  56d   7
2020 12 16 04  11 00 20.266   +09 00 24.33  4.3787 4.6764 101.6 18.7  56d   7
2020 12 16 05  11 00 20.207   +09 00 13.02  4.3780 4.6764 101.6 18.7  56d   7
2020 12 16 06  11 00 20.147   +09 00 01.71  4.3773 4.6764 101.6 18.7  56d   7
2020 12 16 07  11 00 20.085   +08 59 50.40  4.3767 4.6764 101.7 18.7  56d   7
2020 12 16 08  11 00 20.021   +08 59 39.10  4.3760 4.6764 101.7 18.7  56d   7
2020 12 16 09  11 00 19.956   +08 59 27.81  4.3753 4.6764 101.8 18.7  56d   7
2020 12 16 10  11 00 19.889   +08 59 16.52  4.3746 4.6764 101.8 18.7  56d   7
2020 12 16 11  11 00 19.821   +08 59 05.24  4.3739 4.6764 101.9 18.7  56d   7
2020 12 16 12  11 00 19.752   +08 58 53.97  4.3733 4.6764 101.9 18.7  56d   7
2020 12 16 13  11 00 19.680   +08 58 42.70  4.3726 4.6763 101.9 18.7  56d   7
2020 12 16 14  11 00 19.607   +08 58 31.43  4.3719 4.6763 102.0 18.7  56d   7
2020 12 16 15  11 00 19.533   +08 58 20.17  4.3712 4.6763 102.0 18.7  56d   7
2020 12 16 16  11 00 19.457   +08 58 08.92  4.3706 4.6763 102.1 18.7  57d   7
2020 12 16 17  11 00 19.380   +08 57 57.67  4.3699 4.6763 102.1 18.7  57d   7
2020 12 16 18  11 00 19.301   +08 57 46.43  4.3692 4.6763 102.1 18.7  57d   7
2020 12 16 19  11 00 19.220   +08 57 35.19  4.3685 4.6763 102.2 18.7  57d   7
2020 12 16 20  11 00 19.138   +08 57 23.96  4.3679 4.6763 102.2 18.7  57d   7
2020 12 16 21  11 00 19.055   +08 57 12.74  4.3672 4.6762 102.3 18.7  57d   7
2020 12 16 22  11 00 18.969   +08 57 01.52  4.3665 4.6762 102.3 18.7  57d   7
2020 12 16 23  11 00 18.883   +08 56 50.30  4.3658 4.6762 102.4 18.7  57d   7
2020 12 17 00  11 00 18.794   +08 56 39.10  4.3652 4.6762 102.4 18.7  57d   8
2020 12 17 01  11 00 18.705   +08 56 27.90  4.3645 4.6762 102.4 18.7  57d   8
2020 12 17 02  11 00 18.613   +08 56 16.70  4.3638 4.6762 102.5 18.7  57d   8
2020 12 17 03  11 00 18.520   +08 56 05.51  4.3631 4.6762 102.5 18.7  58d   8
2020 12 17 04  11 00 18.426   +08 55 54.32  4.3625 4.6762 102.6 18.7  58d   8
2020 12 17 05  11 00 18.330   +08 55 43.14  4.3618 4.6762 102.6 18.7  58d   8
2020 12 17 06  11 00 18.232   +08 55 31.97  4.3611 4.6761 102.6 18.7  58d   8
2020 12 17 07  11 00 18.133   +08 55 20.80  4.3604 4.6761 102.7 18.7  58d   8
2020 12 17 08  11 00 18.032   +08 55 09.64  4.3598 4.6761 102.7 18.7  58d   8
2020 12 17 09  11 00 17.930   +08 54 58.48  4.3591 4.6761 102.8 18.7  58d   8
2020 12 17 10  11 00 17.826   +08 54 47.33  4.3584 4.6761 102.8 18.7  59d   8
2020 12 17 11  11 00 17.721   +08 54 36.19  4.3577 4.6761 102.9 18.7  59d   8
2020 12 17 12  11 00 17.614   +08 54 25.05  4.3571 4.6761 102.9 18.7  59d   8
2020 12 17 13  11 00 17.506   +08 54 13.92  4.3564 4.6761 102.9 18.7  59d   8
2020 12 17 14  11 00 17.396   +08 54 02.79  4.3557 4.6761 103.0 18.7  59d   8
2020 12 17 15  11 00 17.284   +08 53 51.67  4.3550 4.6760 103.0 18.7  59d   8
2020 12 17 16  11 00 17.171   +08 53 40.55  4.3544 4.6760 103.1 18.7  59d   8
2020 12 17 17  11 00 17.056   +08 53 29.44  4.3537 4.6760 103.1 18.7  60d   8
2020 12 17 18  11 00 16.940   +08 53 18.33  4.3530 4.6760 103.1 18.7  60d   8
2020 12 17 19  11 00 16.822   +08 53 07.24  4.3524 4.6760 103.2 18.7  60d   8